Location: Township of Marena
(38.1747°N, 99.6798°W)
Time: 03:17:43
(UTC+00:00)

Cosmos 1980 Rocket - Pass Details

Date: 26 October 2020
Orbit: 831 x 848 km, 71.0° (Epoch: 24 November)

Event Time Altitude Azimuth Distance (km) Brightness Sun altitude
Rises 03:00:31 0° 224° (SW) 3,380 5.6 -38.5°
Reaches altitude 10° 03:03:08 10° 232° (SW) 2,447 4.9 -39.0°
Enters shadow 03:04:23 16° 239° (WSW) 2,038 4.5 -39.2°
